Location: Rounton
(54.4000°N, 1.3500°W)
Time: 21:00:04
(UTC+01:00)

deb Delta 126 - Pass Details

Date: 10 July 2022
Orbit: 1120 x 1970 km, 101.5° (Epoch: 17 August)

Event Time Altitude Azimuth Distance (km) Brightness Sun altitude
Rises 00:09:40 0° 30° (NNE) 5,110 ? -12.2°
Reaches altitude 10° 00:13:06 10° 20° (NNE) 4,208 ? -12.3°
Maximum altitude 00:21:24 29° 327° (NNW) 3,071 ? -12.6°
Drops below altitude 10° 00:30:05 10° 274° (W) 4,399 ? -12.8°
Sets 00:33:47 0° 264° (W) 5,376 ? -12.9°
